Location: Adavinekkalam
(16.6301°N, 80.7229°E)
Time: 07:20:43
(UTC+00:00)

ATLAS 2AS CENTAUR R/B - Pass Details

Date: 15 May 2026
Orbit: 1053 x 1158 km, 63.7° (Epoch: 5 June)

Event Time Altitude Azimuth Distance (km) Brightness Sun altitude
Rises 23:02:31 0° 318° (NW) 3,829 5.4 -14.9°
Reaches altitude 10° 23:05:28 10° 307° (NW) 2,883 4.7 -14.2°
Maximum altitude 23:11:13 30° 249° (WSW) 1,827 3.4 -13.0°
Drops below altitude 10° 23:17:06 10° 191° (SSW) 2,934 4.7 -11.7°
Sets 23:20:09 0° 181° (S) 3,908 5.4 -11.0°
